RYR42UH LEMG-LIRF

Flight info

Callsign RYR42UH
Flight time 2h 0m
Altitude 38000
Route RIXUR N851 MHN M603 MORSS DCT BAVON DCT ORKUM DCT ELSAG DCT ALG DCT MINKA DCT POZZO DCT ROMPO DCT BATOX DCT TINTO L5 VALMA
Aircraft B738/M-SDE2E3FGHIRWXY/LB1

Departure

Time 2026-05-06 18:41
Airport Málaga-Costa del Sol Airport (LEMG)

Arrival

Time 2026-05-06 20:41
Airport Rome–Fiumicino Leonardo da Vinci International Airport (LIRF)
Time Latitude Longitude Altitude Speed Heading
2026-05-06 18:22 36.67419 -4.49075 41 ft 0 kts 116°
2026-05-06 18:30 36.67422 -4.49081 41 ft 0 kts 115°
2026-05-06 18:31 36.67430 -4.49102 40 ft 3 kts 111°
2026-05-06 18:31 36.67434 -4.49120 40 ft 2 kts 86°
2026-05-06 18:31 36.67430 -4.49135 37 ft 2 kts 56°
2026-05-06 18:31 36.67418 -4.49154 38 ft 3 kts 47°
2026-05-06 18:32 36.67404 -4.49170 38 ft 3 kts 36°
2026-05-06 18:32 36.67389 -4.49185 41 ft 3 kts 40°
2026-05-06 18:32 36.67374 -4.49202 36 ft 3 kts 44°
2026-05-06 18:32 36.67360 -4.49219 39 ft 3 kts 38°
2026-05-06 18:33 36.67346 -4.49229 36 ft 2 kts 14°
2026-05-06 18:33 36.67332 -4.49230 39 ft 2 kts 348°
2026-05-06 18:33 36.67320 -4.49226 40 ft 2 kts 334°
2026-05-06 18:33 36.67311 -4.49220 38 ft 1 kts 328°
2026-05-06 18:34 36.67304 -4.49214 38 ft 1 kts 324°
2026-05-06 18:34 36.67297 -4.49207 38 ft 1 kts 321°
2026-05-06 18:36 36.67342 -4.49274 41 ft 14 kts 294°
2026-05-06 18:36 36.67332 -4.49386 42 ft 13 kts 287°
2026-05-06 18:36 36.67388 -4.49473 42 ft 13 kts 316°
2026-05-06 18:37 36.67446 -4.49554 42 ft 12 kts 310°
2026-05-06 18:37 36.67484 -4.49606 41 ft 12 kts 311°
2026-05-06 18:37 36.67559 -4.49710 42 ft 12 kts 311°
2026-05-06 18:37 36.67625 -4.49803 42 ft 22 kts 309°
2026-05-06 18:38 36.67730 -4.49948 42 ft 23 kts 314°
2026-05-06 18:38 36.67833 -4.50094 43 ft 22 kts 311°
2026-05-06 18:38 36.67933 -4.50234 44 ft 21 kts 311°
2026-05-06 18:38 36.68036 -4.50378 43 ft 26 kts 311°
2026-05-06 18:39 36.68153 -4.50542 43 ft 25 kts 311°
2026-05-06 18:39 36.68272 -4.50709 44 ft 27 kts 311°
2026-05-06 18:39 36.68402 -4.50891 49 ft 31 kts 311°
2026-05-06 18:40 36.68455 -4.51210 60 ft 6 kts 212°
2026-05-06 18:40 36.68401 -4.51184 57 ft 10 kts 135°
2026-05-06 18:40 36.68253 -4.50979 55 ft 72 kts 131°
2026-05-06 18:40 36.67723 -4.50237 56 ft 155 kts 131°
2026-05-06 18:41 36.66909 -4.49133 746 ft 177 kts 131°
2026-05-06 18:41 36.66081 -4.48027 1960 ft 177 kts 136°
2026-05-06 18:41 36.65116 -4.46880 2543 ft 206 kts 137°
2026-05-06 18:41 36.64008 -4.45575 2841 ft 230 kts 137°
2026-05-06 18:42 36.62839 -4.44188 3457 ft 235 kts 136°
2026-05-06 18:42 36.61662 -4.42775 4089 ft 240 kts 136°
2026-05-06 18:42 36.60414 -4.41270 4526 ft 259 kts 135°
2026-05-06 18:42 36.59107 -4.39665 5262 ft 267 kts 130°
2026-05-06 18:43 36.58292 -4.37629 6231 ft 268 kts 98°
2026-05-06 18:43 36.58523 -4.35339 7066 ft 272 kts 68°
2026-05-06 18:43 36.59273 -4.33138 7861 ft 280 kts 69°
2026-05-06 18:43 36.59980 -4.30851 8692 ft 286 kts 70°
2026-05-06 18:44 36.60450 -4.29276 9274 ft 289 kts 70°
2026-05-06 18:44 36.61142 -4.26940 10103 ft 294 kts 70°
2026-05-06 18:44 36.61863 -4.24493 10561 ft 313 kts 71°
2026-05-06 18:44 36.62778 -4.21908 10783 ft 339 kts 58°
2026-05-06 18:45 36.64213 -4.19526 11402 ft 348 kts 50°
2026-05-06 18:45 36.65820 -4.17236 12153 ft 354 kts 48°
2026-05-06 18:45 36.67479 -4.14935 12914 ft 360 kts 48°
2026-05-06 18:45 36.69154 -4.12585 13670 ft 365 kts 49°
2026-05-06 18:46 36.70838 -4.10173 14352 ft 371 kts 49°
2026-05-06 18:46 36.72521 -4.07717 15069 ft 374 kts 50°
2026-05-06 18:46 36.74208 -4.05223 15773 ft 379 kts 50°
2026-05-06 18:46 36.75905 -4.02693 16481 ft 383 kts 50°
2026-05-06 18:47 36.77619 -4.00121 17183 ft 387 kts 50°
2026-05-06 18:47 36.79351 -3.97514 17871 ft 392 kts 50°
2026-05-06 18:47 36.81101 -3.94876 18491 ft 397 kts 50°
2026-05-06 18:47 36.82871 -3.92202 19034 ft 403 kts 50°
2026-05-06 18:48 36.84672 -3.89480 19556 ft 409 kts 50°
2026-05-06 18:48 36.86495 -3.86722 20089 ft 415 kts 50°
2026-05-06 18:48 36.88339 -3.83932 20625 ft 420 kts 50°
2026-05-06 18:48 36.90185 -3.81136 21136 ft 425 kts 50°
2026-05-06 18:49 36.92077 -3.78266 21637 ft 431 kts 50°
2026-05-06 18:49 36.94017 -3.75323 22144 ft 436 kts 50°
2026-05-06 18:49 36.95932 -3.72414 22651 ft 441 kts 50°
2026-05-06 18:49 36.97893 -3.69435 23130 ft 446 kts 50°
2026-05-06 18:50 36.99874 -3.66422 23574 ft 451 kts 50°
2026-05-06 18:50 37.01873 -3.63378 23998 ft 455 kts 50°
2026-05-06 18:50 37.03892 -3.60300 24434 ft 458 kts 50°
2026-05-06 18:50 37.05924 -3.57201 24854 ft 462 kts 50°
2026-05-06 18:51 37.07970 -3.54077 25280 ft 466 kts 50°
2026-05-06 18:51 37.10034 -3.50923 25706 ft 470 kts 50°
2026-05-06 18:51 37.12112 -3.47743 26091 ft 473 kts 50°
2026-05-06 18:51 37.14203 -3.44541 26485 ft 477 kts 50°
2026-05-06 18:52 37.16314 -3.41305 26840 ft 481 kts 50°
2026-05-06 18:52 37.18437 -3.38047 27256 ft 484 kts 50°
2026-05-06 18:52 37.20574 -3.34765 27657 ft 486 kts 50°
2026-05-06 18:52 37.22717 -3.31471 28022 ft 490 kts 50°
2026-05-06 18:53 37.24835 -3.28106 28378 ft 493 kts 54°
2026-05-06 18:53 37.26611 -3.24404 28658 ft 497 kts 65°
2026-05-06 18:53 37.28099 -3.20484 29033 ft 499 kts 66°
2026-05-06 18:53 37.29577 -3.16531 29378 ft 501 kts 66°
2026-05-06 18:54 37.31077 -3.12558 29680 ft 505 kts 65°
2026-05-06 18:54 37.32607 -3.08568 30007 ft 508 kts 65°
2026-05-06 18:54 37.34156 -3.04571 30290 ft 510 kts 65°
2026-05-06 18:54 37.35723 -3.00549 30564 ft 513 kts 65°
2026-05-06 18:55 37.37291 -2.96523 30841 ft 514 kts 65°
2026-05-06 18:55 37.38864 -2.92473 31107 ft 517 kts 65°
2026-05-06 18:55 37.40442 -2.88400 31371 ft 519 kts 65°
2026-05-06 18:55 37.42025 -2.84307 31571 ft 521 kts 65°
2026-05-06 18:56 37.43589 -2.80262 31940 ft 519 kts 65°
2026-05-06 18:56 37.45162 -2.76191 32349 ft 517 kts 65°
2026-05-06 18:56 37.46735 -2.72118 32671 ft 517 kts 65°
2026-05-06 18:56 37.48309 -2.68035 32967 ft 518 kts 65°
2026-05-06 18:57 37.49881 -2.63952 33302 ft 518 kts 65°
2026-05-06 18:57 37.51448 -2.59874 33682 ft 517 kts 66°
2026-05-06 18:57 37.53009 -2.55808 34019 ft 516 kts 66°
2026-05-06 18:57 37.54573 -2.51729 34289 ft 515 kts 66°
2026-05-06 18:58 37.56129 -2.47665 34582 ft 515 kts 65°
2026-05-06 18:58 37.57682 -2.43603 34877 ft 513 kts 65°
2026-05-06 18:58 37.59228 -2.39552 35170 ft 513 kts 65°
2026-05-06 18:58 37.60774 -2.35499 35447 ft 512 kts 65°
2026-05-06 18:59 37.62316 -2.31453 35730 ft 512 kts 65°
2026-05-06 18:59 37.63852 -2.27417 36036 ft 510 kts 65°
2026-05-06 18:59 37.65366 -2.23438 36289 ft 509 kts 65°
2026-05-06 18:59 37.66901 -2.19396 36495 ft 510 kts 65°
2026-05-06 19:00 37.68434 -2.15357 36697 ft 510 kts 65°
2026-05-06 19:00 37.69965 -2.11319 36968 ft 509 kts 65°
2026-05-06 19:00 37.71493 -2.07283 37197 ft 509 kts 65°
2026-05-06 19:00 37.73021 -2.03241 37415 ft 509 kts 65°
2026-05-06 19:01 37.74545 -1.99203 37651 ft 509 kts 65°
2026-05-06 19:01 37.76066 -1.95170 37931 ft 507 kts 65°
2026-05-06 19:01 37.77587 -1.91130 37936 ft 511 kts 65°
2026-05-06 19:02 37.80650 -1.82977 37942 ft 513 kts 65°
2026-05-06 19:02 37.83698 -1.74844 37926 ft 509 kts 65°
2026-05-06 19:03 37.86692 -1.66830 37935 ft 506 kts 65°
2026-05-06 19:03 37.89688 -1.58794 37933 ft 504 kts 65°
2026-05-06 19:04 37.92671 -1.50762 37921 ft 504 kts 65°
2026-05-06 19:04 37.95638 -1.42725 37933 ft 503 kts 65°
2026-05-06 19:05 37.98600 -1.34676 37933 ft 505 kts 65°
2026-05-06 19:05 38.01565 -1.26601 37938 ft 507 kts 65°
2026-05-06 19:06 38.04546 -1.18465 37948 ft 509 kts 65°
2026-05-06 19:06 38.07529 -1.10300 37930 ft 511 kts 65°
2026-05-06 19:07 38.10520 -1.02089 37946 ft 513 kts 65°
2026-05-06 19:07 38.13399 -0.94167 37937 ft 514 kts 65°
2026-05-06 19:08 38.16391 -0.85911 37943 ft 515 kts 65°
2026-05-06 19:08 38.19359 -0.77696 37942 ft 515 kts 65°
2026-05-06 19:09 38.22341 -0.69419 37942 ft 514 kts 65°
2026-05-06 19:09 38.25310 -0.61159 37939 ft 513 kts 65°
2026-05-06 19:10 38.28216 -0.52883 37937 ft 512 kts 68°
2026-05-06 19:10 38.30859 -0.44483 37936 ft 510 kts 69°
2026-05-06 19:11 38.33468 -0.36146 37940 ft 509 kts 68°
2026-05-06 19:11 38.36144 -0.27746 37942 ft 508 kts 68°
2026-05-06 19:12 38.38867 -0.19508 37933 ft 507 kts 67°
2026-05-06 19:12 38.41643 -0.11236 37927 ft 507 kts 67°
2026-05-06 19:13 38.44390 -0.02954 37937 ft 509 kts 67°
2026-05-06 19:13 38.47134 0.05462 37938 ft 518 kts 68°
2026-05-06 19:14 38.49880 0.14043 37938 ft 525 kts 68°
2026-05-06 19:14 38.52653 0.22719 37929 ft 530 kts 68°
2026-05-06 19:15 38.55439 0.31443 37923 ft 530 kts 68°
2026-05-06 19:15 38.58184 0.40057 37915 ft 523 kts 68°
2026-05-06 19:16 38.60914 0.48654 37928 ft 521 kts 68°
2026-05-06 19:16 38.63641 0.57229 37929 ft 520 kts 68°
2026-05-06 19:17 38.66363 0.65797 37928 ft 520 kts 68°
2026-05-06 19:17 38.69067 0.74380 37933 ft 520 kts 68°
2026-05-06 19:18 38.71753 0.82983 37935 ft 520 kts 68°
2026-05-06 19:18 38.74436 0.91605 37938 ft 521 kts 68°
2026-05-06 19:19 38.77106 1.00201 37935 ft 521 kts 69°
2026-05-06 19:19 38.79784 1.08846 37940 ft 522 kts 69°
2026-05-06 19:20 38.82458 1.17504 37940 ft 522 kts 69°
2026-05-06 19:20 38.85124 1.26167 37942 ft 522 kts 69°
2026-05-06 19:21 38.87770 1.34793 37941 ft 523 kts 69°
2026-05-06 19:21 38.90425 1.43472 37940 ft 523 kts 69°
2026-05-06 19:22 38.93060 1.52181 37944 ft 523 kts 69°
2026-05-06 19:22 38.95635 1.60924 37943 ft 523 kts 70°
2026-05-06 19:23 38.98197 1.69673 37947 ft 523 kts 70°
2026-05-06 19:23 39.00757 1.78415 37951 ft 523 kts 70°
2026-05-06 19:24 39.03320 1.87180 37951 ft 523 kts 70°
2026-05-06 19:24 39.05858 1.95888 37950 ft 523 kts 70°
2026-05-06 19:25 39.08412 2.04677 37950 ft 524 kts 70°
2026-05-06 19:25 39.10956 2.13465 37949 ft 524 kts 70°
2026-05-06 19:26 39.13494 2.22259 37953 ft 524 kts 70°
2026-05-06 19:26 39.16028 2.31068 37948 ft 524 kts 70°
2026-05-06 19:27 39.18552 2.39875 37952 ft 524 kts 70°
2026-05-06 19:27 39.21056 2.48641 37952 ft 524 kts 70°
2026-05-06 19:28 39.23570 2.57467 37953 ft 524 kts 70°
2026-05-06 19:28 39.26084 2.66296 37957 ft 524 kts 70°
2026-05-06 19:29 39.28599 2.75111 37959 ft 523 kts 70°
2026-05-06 19:29 39.30812 2.82979 37959 ft 523 kts 70°
2026-05-06 19:30 39.33266 2.91755 37959 ft 523 kts 70°
2026-05-06 19:30 39.35731 3.00586 37962 ft 522 kts 70°
2026-05-06 19:31 39.38190 3.09419 37965 ft 522 kts 70°
2026-05-06 19:31 39.41867 3.22677 37960 ft 522 kts 70°
2026-05-06 19:32 39.45004 3.31098 37983 ft 520 kts 57°
2026-05-06 19:32 39.48802 3.39087 37969 ft 521 kts 57°
2026-05-06 19:33 39.52567 3.47096 37963 ft 521 kts 58°
2026-05-06 19:33 39.56285 3.55164 37966 ft 521 kts 58°
2026-05-06 19:34 39.59956 3.63200 37963 ft 522 kts 58°
2026-05-06 19:34 39.63650 3.71301 37968 ft 522 kts 58°
2026-05-06 19:35 39.67340 3.79406 37968 ft 522 kts 58°
2026-05-06 19:35 39.71029 3.87526 37969 ft 522 kts 58°
2026-05-06 19:36 39.74709 3.95648 37968 ft 522 kts 58°
2026-05-06 19:36 39.78384 4.03782 37966 ft 522 kts 58°
2026-05-06 19:37 39.82031 4.11875 37965 ft 522 kts 59°
2026-05-06 19:37 39.85096 4.18702 37970 ft 522 kts 60°
2026-05-06 19:38 39.87113 4.24383 37954 ft 522 kts 72°
2026-05-06 19:38 39.87777 4.27390 37980 ft 521 kts 77°
2026-05-06 19:38 39.89549 4.36552 37966 ft 521 kts 77°
2026-05-06 19:39 39.91686 4.47177 37967 ft 521 kts 76°
2026-05-06 19:39 39.93256 4.54781 37969 ft 522 kts 76°
2026-05-06 19:40 39.95134 4.63916 37971 ft 522 kts 76°
2026-05-06 19:40 39.97068 4.73047 37971 ft 522 kts 74°
2026-05-06 19:41 39.99171 4.82118 37974 ft 522 kts 73°
2026-05-06 19:41 40.01271 4.91149 37973 ft 522 kts 74°
2026-05-06 19:42 40.03348 5.00246 37974 ft 522 kts 74°
2026-05-06 19:42 40.05388 5.09297 37974 ft 522 kts 74°
2026-05-06 19:43 40.07430 5.18398 37976 ft 522 kts 75°
2026-05-06 19:43 40.09455 5.27453 37979 ft 522 kts 75°
2026-05-06 19:44 40.11485 5.36562 37982 ft 522 kts 75°
2026-05-06 19:44 40.13511 5.45689 37982 ft 521 kts 75°
2026-05-06 19:45 40.15510 5.54731 37980 ft 521 kts 75°
2026-05-06 19:45 40.17513 5.63828 37976 ft 521 kts 75°
2026-05-06 19:46 40.19508 5.72933 37981 ft 521 kts 75°
2026-05-06 19:46 40.21500 5.82058 37976 ft 521 kts 75°
2026-05-06 19:47 40.23483 5.91179 37982 ft 521 kts 75°
2026-05-06 19:47 40.25459 6.00306 37984 ft 520 kts 75°
2026-05-06 19:48 40.27415 6.09372 37979 ft 520 kts 75°
2026-05-06 19:48 40.29377 6.18494 37979 ft 519 kts 75°
2026-05-06 19:49 40.31332 6.27622 37979 ft 519 kts 75°
2026-05-06 19:49 40.33270 6.36706 37983 ft 519 kts 75°
2026-05-06 19:50 40.35202 6.45806 37986 ft 518 kts 75°
2026-05-06 19:50 40.37128 6.54911 37980 ft 518 kts 76°
2026-05-06 19:51 40.39030 6.63946 37986 ft 517 kts 76°
2026-05-06 19:51 40.40937 6.73044 37983 ft 517 kts 76°
2026-05-06 19:52 40.42835 6.82133 37985 ft 516 kts 76°
2026-05-06 19:52 40.44726 6.91231 37981 ft 516 kts 76°
2026-05-06 19:53 40.46605 7.00313 37984 ft 515 kts 76°
2026-05-06 19:53 40.48478 7.09399 37983 ft 515 kts 76°
2026-05-06 19:54 40.50329 7.18426 37982 ft 515 kts 76°
2026-05-06 19:54 40.52185 7.27512 37982 ft 514 kts 76°
2026-05-06 19:55 40.54033 7.36600 37981 ft 514 kts 76°
2026-05-06 19:55 40.55873 7.45683 37982 ft 514 kts 76°
2026-05-06 19:56 40.57152 7.54879 37996 ft 510 kts 86°
2026-05-06 19:56 40.57842 7.64169 37969 ft 510 kts 87°
2026-05-06 19:57 40.58559 7.73389 37981 ft 510 kts 86°
2026-05-06 19:57 40.59342 7.82658 37975 ft 510 kts 86°
2026-05-06 19:58 40.60128 7.91921 37982 ft 509 kts 86°
2026-05-06 19:58 40.60899 8.01177 37986 ft 509 kts 86°
2026-05-06 19:59 40.61663 8.10450 37991 ft 509 kts 86°
2026-05-06 19:59 40.62416 8.19652 37988 ft 509 kts 86°
2026-05-06 20:00 40.63983 8.28732 37986 ft 512 kts 68°
2026-05-06 20:00 40.66797 8.37351 37995 ft 512 kts 67°
2026-05-06 20:01 40.69586 8.45985 37986 ft 512 kts 68°
2026-05-06 20:01 40.72309 8.54659 37980 ft 512 kts 68°
2026-05-06 20:02 40.75008 8.63344 37980 ft 512 kts 68°
2026-05-06 20:02 40.77689 8.71987 37972 ft 512 kts 68°
2026-05-06 20:03 40.80384 8.80686 37970 ft 512 kts 68°
2026-05-06 20:03 40.83079 8.89401 37970 ft 512 kts 68°
2026-05-06 20:04 40.85787 8.98094 37976 ft 512 kts 68°
2026-05-06 20:04 40.88493 9.06802 37965 ft 512 kts 68°
2026-05-06 20:05 40.91188 9.15516 37972 ft 512 kts 68°
2026-05-06 20:05 40.93880 9.24252 37986 ft 512 kts 68°
2026-05-06 20:06 40.96541 9.32932 37995 ft 512 kts 69°
2026-05-06 20:06 40.99199 9.41666 37989 ft 511 kts 69°
2026-05-06 20:07 41.01846 9.50388 37984 ft 511 kts 69°
2026-05-06 20:07 41.04489 9.59123 37984 ft 510 kts 69°
2026-05-06 20:08 41.07122 9.67855 37978 ft 510 kts 69°
2026-05-06 20:08 41.09746 9.76580 37974 ft 510 kts 69°
2026-05-06 20:09 41.12338 9.85265 37966 ft 509 kts 69°
2026-05-06 20:09 41.14931 9.94010 37972 ft 509 kts 69°
2026-05-06 20:10 41.17515 10.02750 37969 ft 509 kts 69°
2026-05-06 20:10 41.20093 10.11492 37974 ft 508 kts 70°
2026-05-06 20:11 41.22667 10.20235 37978 ft 508 kts 69°
2026-05-06 20:11 41.25244 10.28976 37975 ft 508 kts 69°
2026-05-06 20:12 41.27800 10.37668 37974 ft 508 kts 70°
2026-05-06 20:12 41.30363 10.46421 37986 ft 508 kts 70°
2026-05-06 20:13 41.32919 10.55183 37973 ft 508 kts 70°
2026-05-06 20:13 41.35469 10.63954 37973 ft 508 kts 70°
2026-05-06 20:14 41.38015 10.72741 37971 ft 508 kts 70°
2026-05-06 20:14 41.40552 10.81526 37983 ft 508 kts 70°
2026-05-06 20:15 41.43070 10.90277 37968 ft 509 kts 70°
2026-05-06 20:15 41.45600 10.99099 37976 ft 509 kts 70°
2026-05-06 20:16 41.48103 11.07853 37869 ft 495 kts 70°
2026-05-06 20:16 41.49297 11.12065 37428 ft 489 kts 71°
2026-05-06 20:16 41.50496 11.16319 36763 ft 489 kts 71°
2026-05-06 20:17 41.51695 11.20585 36042 ft 491 kts 71°
2026-05-06 20:17 41.52892 11.24850 35234 ft 489 kts 72°
2026-05-06 20:17 41.54082 11.29101 34219 ft 490 kts 72°
2026-05-06 20:17 41.55280 11.33387 33025 ft 494 kts 72°
2026-05-06 20:18 41.56468 11.37639 32034 ft 492 kts 72°
2026-05-06 20:18 41.57654 11.41886 31262 ft 485 kts 72°
2026-05-06 20:18 41.58834 11.46091 30651 ft 476 kts 71°
2026-05-06 20:18 41.59994 11.50196 30026 ft 467 kts 71°
2026-05-06 20:19 41.61120 11.54176 29260 ft 461 kts 71°
2026-05-06 20:19 41.62244 11.58157 28491 ft 454 kts 71°
2026-05-06 20:19 41.63352 11.62090 27737 ft 448 kts 71°
2026-05-06 20:19 41.64437 11.65956 27023 ft 441 kts 71°
2026-05-06 20:20 41.65504 11.69763 26327 ft 435 kts 71°
2026-05-06 20:20 41.66557 11.73528 25649 ft 428 kts 71°
2026-05-06 20:20 41.67592 11.77235 24977 ft 422 kts 70°
2026-05-06 20:20 41.68615 11.80900 24328 ft 417 kts 70°
2026-05-06 20:21 41.69566 11.84311 23892 ft 407 kts 70°
2026-05-06 20:21 41.70533 11.87787 23726 ft 389 kts 70°
2026-05-06 20:21 41.71454 11.91108 23071 ft 385 kts 70°
2026-05-06 20:21 41.72386 11.94449 22360 ft 384 kts 68°
2026-05-06 20:22 41.73772 11.97478 21687 ft 380 kts 45°
2026-05-06 20:22 41.75862 11.99548 21209 ft 369 kts 24°
2026-05-06 20:22 41.78266 12.00564 20711 ft 358 kts
2026-05-06 20:22 41.80717 12.00668 20197 ft 348 kts 348°
2026-05-06 20:23 41.83030 11.99910 19723 ft 338 kts 339°
2026-05-06 20:23 41.85257 11.98954 19241 ft 334 kts 338°
2026-05-06 20:23 41.87426 11.98001 18775 ft 331 kts 338°
2026-05-06 20:23 41.89627 11.97038 18304 ft 327 kts 339°
2026-05-06 20:24 41.91762 11.96113 17782 ft 324 kts 339°
2026-05-06 20:24 41.93901 11.95194 17254 ft 321 kts 339°
2026-05-06 20:24 41.96021 11.94289 16750 ft 318 kts 340°
2026-05-06 20:24 41.98131 11.93390 16230 ft 316 kts 340°
2026-05-06 20:25 42.00218 11.92501 15737 ft 313 kts 340°
2026-05-06 20:25 42.02271 11.91628 15251 ft 311 kts 340°
2026-05-06 20:25 42.04328 11.90752 14770 ft 309 kts 340°
2026-05-06 20:25 42.06371 11.89882 14291 ft 307 kts 340°
2026-05-06 20:26 42.08402 11.89015 13825 ft 305 kts 340°
2026-05-06 20:26 42.10422 11.88154 13302 ft 303 kts 340°
2026-05-06 20:26 42.12431 11.87296 12777 ft 302 kts 340°
2026-05-06 20:26 42.14431 11.86442 12261 ft 300 kts 340°
2026-05-06 20:27 42.16414 11.85593 11873 ft 296 kts 340°
2026-05-06 20:27 42.18354 11.84762 11591 ft 297 kts 340°
2026-05-06 20:27 42.20325 11.83919 11295 ft 297 kts 340°
2026-05-06 20:27 42.22290 11.83077 10998 ft 295 kts 340°
2026-05-06 20:28 42.24246 11.82239 10697 ft 294 kts 340°
2026-05-06 20:28 42.26192 11.81404 10436 ft 292 kts 340°
2026-05-06 20:28 42.28120 11.80585 10202 ft 289 kts 342°
2026-05-06 20:28 42.30118 11.80379 9946 ft 290 kts
2026-05-06 20:29 42.31972 11.81366 9680 ft 288 kts 36°
2026-05-06 20:29 42.33304 11.83340 9400 ft 285 kts 63°
2026-05-06 20:29 42.33842 11.85836 9126 ft 279 kts 90°
2026-05-06 20:29 42.33530 11.88378 8850 ft 272 kts 116°
2026-05-06 20:30 42.32516 11.90491 8581 ft 266 kts 137°
2026-05-06 20:30 42.29501 11.93235 8016 ft 257 kts 152°
2026-05-06 20:30 42.27982 11.94465 7662 ft 252 kts 152°
2026-05-06 20:31 42.26500 11.95668 7309 ft 246 kts 152°
2026-05-06 20:31 42.25047 11.96853 6989 ft 240 kts 152°
2026-05-06 20:31 42.23650 11.97995 6657 ft 230 kts 152°
2026-05-06 20:31 42.22321 11.99082 6312 ft 223 kts 152°
2026-05-06 20:32 42.21000 12.00163 6004 ft 220 kts 151°
2026-05-06 20:32 42.19707 12.01223 5698 ft 216 kts 152°
2026-05-06 20:32 42.18432 12.02267 5409 ft 212 kts 151°
2026-05-06 20:32 42.17182 12.03290 5166 ft 209 kts 151°
2026-05-06 20:33 42.15938 12.04308 4950 ft 210 kts 151°
2026-05-06 20:33 42.14687 12.05332 4746 ft 210 kts 151°
2026-05-06 20:33 42.13448 12.06345 4527 ft 212 kts 151°
2026-05-06 20:33 42.12187 12.07378 4280 ft 211 kts 150°
2026-05-06 20:34 42.10940 12.08398 4057 ft 209 kts 150°
2026-05-06 20:34 42.09701 12.09411 3828 ft 208 kts 150°
2026-05-06 20:34 42.08468 12.10417 3600 ft 207 kts 150°
2026-05-06 20:34 42.07263 12.11402 3395 ft 198 kts 150°
2026-05-06 20:35 42.06132 12.12369 3202 ft 188 kts 144°
2026-05-06 20:35 42.05232 12.13577 3023 ft 181 kts 135°
2026-05-06 20:35 42.04404 12.14819 2851 ft 174 kts 135°
2026-05-06 20:35 42.03599 12.16021 2701 ft 173 kts 135°
2026-05-06 20:36 42.02782 12.17230 2558 ft 175 kts 135°
2026-05-06 20:36 42.01972 12.18424 2504 ft 175 kts 135°
2026-05-06 20:36 42.00989 12.19298 2487 ft 169 kts 166°
2026-05-06 20:36 41.99827 12.19596 2475 ft 172 kts 163°
2026-05-06 20:37 41.98739 12.20238 2497 ft 170 kts 159°
2026-05-06 20:37 41.97609 12.20733 2485 ft 168 kts 165°
2026-05-06 20:37 41.96526 12.21164 2441 ft 156 kts 165°
2026-05-06 20:37 41.95501 12.21586 2236 ft 151 kts 164°
2026-05-06 20:38 41.94513 12.21996 2067 ft 147 kts 164°
2026-05-06 20:38 41.93559 12.22395 1890 ft 138 kts 164°
2026-05-06 20:38 41.92663 12.22775 1699 ft 135 kts 163°
2026-05-06 20:38 41.91772 12.23146 1509 ft 134 kts 163°
2026-05-06 20:39 41.90882 12.23516 1340 ft 134 kts 163°
2026-05-06 20:39 41.89996 12.23886 1161 ft 133 kts 163°
2026-05-06 20:39 41.89105 12.24259 987 ft 135 kts 164°
2026-05-06 20:39 41.88205 12.24636 764 ft 135 kts 163°
2026-05-06 20:40 41.87308 12.25003 543 ft 134 kts 161°
2026-05-06 20:40 41.86433 12.25394 368 ft 136 kts 161°
2026-05-06 20:40 41.85521 12.25766 220 ft 137 kts 162°
2026-05-06 20:40 41.84609 12.26144 68 ft 138 kts 162°
2026-05-06 20:41 41.84006 12.26400 26 ft 132 kts 162°
2026-05-06 20:41 41.83221 12.26729 10 ft 99 kts 162°
2026-05-06 20:41 41.82706 12.26943 13 ft 56 kts 163°
2026-05-06 20:41 41.82448 12.27052 10 ft 34 kts 164°
2026-05-06 20:42 41.82195 12.27129 9 ft 38 kts 173°
2026-05-06 20:42 41.81937 12.27102 10 ft 37 kts 193°
2026-05-06 20:42 41.81697 12.27050 13 ft 34 kts 174°
2026-05-06 20:42 41.81481 12.27130 11 ft 31 kts 163°
2026-05-06 20:43 41.81284 12.27215 11 ft 29 kts 163°
2026-05-06 20:43 41.81101 12.27292 13 ft 27 kts 162°
2026-05-06 20:43 41.80926 12.27352 12 ft 25 kts 179°
2026-05-06 20:43 41.80760 12.27315 12 ft 23 kts 189°
2026-05-06 20:44 41.80646 12.27187 13 ft 25 kts 250°
2026-05-06 20:44 41.80575 12.26935 12 ft 29 kts 248°
2026-05-06 20:44 41.80509 12.26689 15 ft 27 kts 249°
2026-05-06 20:44 41.80445 12.26456 17 ft 26 kts 250°
2026-05-06 20:45 41.80315 12.26390 15 ft 24 kts 152°
2026-05-06 20:45 41.80161 12.26372 13 ft 23 kts 204°
2026-05-06 20:45 41.80004 12.26273 14 ft 25 kts 204°
2026-05-06 20:45 41.79850 12.26180 13 ft 24 kts 205°
2026-05-06 20:46 41.79709 12.26078 13 ft 23 kts 207°
2026-05-06 20:46 41.79577 12.25994 13 ft 12 kts 207°
2026-05-06 20:46 41.79578 12.25946 13 ft 10 kts 296°
2026-05-06 20:46 41.79587 12.25921 13 ft 0 kts 295°